Погода в Житковичи

Погода в Житковичи : погода сейчас, прогноз погоды и архив. Всё, что Вы хотите узнать о погоде в Житковичи!

Хотите узнать прогноз погоды в Житковичи? Тогда Вам сюда: Погода в Житковичи

Поиск расширенной информации на нашем сайте:

Полезная информация: Круг отрезной инваб.

Другие новости

Новости СМИ2

Главная страница сайта

Новости сайта

03.07.2017

Напоминаем, что на нашем специализированном сайте Метеоцентр.Азия вы можете получить высокодетализированные автоматические прогнозы погоды по пунктам России, СНГ и мира в авиационном формате (включающие направление и скорость ветра, видимость, явления погоды, количество и форму облачности, нижнюю и верхнюю границу облачности).

Рекомендуем: Ворота гаражные секционные отзыв о гаражные секционные ворота.

Погода в Житковичи - сегодня

Время (UTC), дата Ветер
(°,м/с) 
Видим.   Явления Облачность Т
(°С)
Тd
(°С)
f(%) Тe
(°С)
Pmin
(гПа)
dP
(гПа)
Po
(мм)
O2
(г/м3)
Тmin Tmax R s Состояние
почвы
12 13.07.18 230 (ЮЗ) 4000 м  гроза, ливневой дождь  8/6 600 м кучево-дожд., средняя 
[Cb cap|Ac trans]
+23.8 +15.7 60 +34  1010.4  -0.9  746  273         
15 13.07.18 300 (СЗ) 10 км  {гроза, ливн. осадки}  4/0 средняя 
[Ac trans]
+23.2 +14.6 58 +31  1010.2  -0.2  746  274         
18 13.07.18 230 (ЮЗ) 10 км  {гроза, ливн. осадки}  8/3 600 м верхняя 
[Sc|Ci fib]
+21.1 +15.1 69 +30  1010.4  746  276    +24.6     
21 13.07.18 210 (ЮЗ) 10 км    3/0 средняя 
[Ac trans]
+17.4 +14.6 84 +27  1010.6  0.1  746  280           
00 14.07.18 тихо ()   4000 м  дымка  3/0 средняя 
[Ac trans]
+14.6 +13.3 92 +21  1010.7  -0.1  746  283           
03 14.07.18 тихо ()   4000 м  дымка  8/0 верхняя 
[Ci fib]
+13.5 +12.6 94 +18  1010.9  0.2  746  284           
06 14.07.18 230 (ЮЗ) 10 км    6/0 средняя, верхняя 
[Ac trans|Ci fib]
+17.3 +14.1 81 +25  1009.9  -0.9  745  280  +13.3         
09 14.07.18 250 (З) 20000 м    8/8 600 м кучево-дожд. 
[Cb cap]
+22 +14.3 62 +30  1009.4  -0.2  745  275           
12 14.07.18 020 (С) 4000 м  гроза, ливневой дождь  10/8 600 м кучево-дожд., средняя 
[Cb cap|Ac und]
+15.6 +14.2 91 +23  1009.4  -0.3  745  281      30     
15 14.07.18 070 (В) 4000 м  гроза, ливневой дождь  9/8 600 м кучево-дожд., средняя 
[Cb cap|Ac trans]
+18.8 +16.3 85 +31  1008.5  -0.8  744  277      59     
18 14.07.18 260 (З) 10 км  {гроза, ливн. осадки}  4/0 средняя, верхняя 
[Ac trans|Ci fib]
+19.4 +14.8 75 +30  1008.1  -0.2  744  277    +22.9  59     
21 14.07.18 тихо ()   4000 м  дымка  3/0 верхняя 
[Ci fib]
+14.6 +13.5 93 +21  1008.8  0.3  745  282           
00 15.07.18 220 (ЮЗ) 4000 м  дымка  4/0 средняя 
[Ac trans]
+13.1 +12.2 94 +18  1008.7  -0.2  744  284           
03 15.07.18 тихо ()   1000 м  дымка  10/0 средняя, верхняя 
[Ac trans|Cs]
+11.7 +11.1 96 +14  1008.4  -0.3  744  285           
06 15.07.18 тихо ()   1000 м  в посл. час туман  10/0 средняя 
[Ac As]
+14.8 +14.4 97 +23  1008.9  0.6  745  282  +11.3         
09 15.07.18 050 (СВ) 20000 м    9/6 600 м кучево-дожд., средняя, верхняя 
[Cb cap|Ac trans|Ci fib]
+21.7 +15.7 69 +32  1007.9  -0.5  744  274           
12 15.07.18 070 (В) 20000 м    8/6 600 м кучево-дожд., верхняя 
[Cb calv|Ci fib]
+23.9 +13.8 53 +31  1007.1  -0.7  744  273           
15 15.07.18 300 (СЗ) 20000 м  в посл. час гроза  9/8 600 м кучево-дожд., верхняя 
[Cb cap|Ci fib]
+21.1 +15.6 71 +31  1007.1  -0.1  744  275           
18 15.07.18 010 (С) 10 км  гроза без осадков{ливн. осадки}  9/8 600 м кучево-дожд., средняя, верхняя 
[Cb cap|Ac cuf|Ci ing]
+20 +16.7 81 +32  1007.3  0.1  744  276    +25  0.3     
21 15.07.18 250 (З) 4000 м  дымка{гроза}  6/0 средняя 
[Ac trans]
+17.4 +15.9 91 +30  1007.4  744  278           
00 16.07.18 тихо ()   4000 м  дымка{гроза}  8/0 средняя 
[Ac trans]
+16.8 +16.1 96 +28  1007.4  -0.1  744  279           
03 16.07.18 тихо ()   1000 м  дымка  8/0 средняя 
[Ac trans]
+15 +14.9 99 +24  1008  0.4  744  281           
06 16.07.18 040 (СВ) 1000 м  дымка{туман}  10/0 средняя 
[As trans]
+16.8 +16.3 97 +29  1007.8  744  279  +15.1         
09 16.07.18 010 (С) 4000 м  дымка  10/8 600 м средняя 
[Sc|As trans]
+18.4 +16.9 91 +31  1007.7  744  277           
12 16.07.18 020 (С) 4000 м  слаб. ливневой дождь  9/8 600 м кучево-дожд., средняя 
[Cb cap|Ac As]
+21.8 +17.1 75 +35  1006.9  -0.6  743  274      0.0     
Время (UTC), дата Ветер
(°,м/с) 
Видим.   Явления Облачность Т
(°С)
Тd
(°С)
f(%) Тe
(°С)
Pmin
(гПа)
dP
(гПа)
Po
(мм)
O2
(г/м3)
Тmin Tmax R s Состояние
почвы

Для получения пояснительной информации подведите курсор к названию столбца.

ПОГОДА в Житковичи - архив

Всё, что Вы хотите узнать о погоде в Житковичи - удобно и подробно!

Выберите нужную дату (начиная с 1 января 2015* года) и нажмите кнопку "Найти".
Будут отображены архивные сводки погоды по пункту Житковичи, начиная с указанной даты.


Отображать данные в формате CSV (для использования в таблицах Excel)


Внимание! Наш архив погоды предназначен исключительно для личного некоммерческого использования в познавательных целях. Если Вам необходимы официальные справки о состоянии погоды (для производственных, юридических, коммерческих и т.п. целей), обращайтесь в органы Росгидромета.

*Примечание: данная дата относится к архиву по метеостанциям СССР (Россия, СНГ, Балтия).
Архив по метеостанциям Зарубежной Европы и Азии (кроме Китая) хранится 10 дней, по другим регионам земного шара (Китай, Африка, Америка, Австралия, Океания) - 1 день.

Житковичи - район местоположения метеостанции


Название, широта, долгота, высота метеостанции:
Житковичи 52.2°ш. 27.9°д. 137 м над ур. моря [Беларусь]

Дополнительная информация

В oтличие oт бoльшинства пoгoдных сайтoв мы публикуем пoдрoбную метеoинфoрмацию в детальнoм прoфессиoнальнoм фoрмате.

Характеристики температуры и влажнoсти вoздуха измеряются на высoте 2 м в тени вдали oт зданий и деревьев.
Скoрoсть ветра измеряется на высoте 10 м (на урoвне рoста челoвека скoрoсть ветра ниже в 1.5-2 раза). Если метеoстанция нахoдится в гoрoде или в лесу, тo скoрoсть ветра занижена на 2-4 м/с пo сравнению с oткрытым местoм. Скoрoсть ветра над акватoриями крупных рек и oзёр, а также на вершинах хoлмoв на 2-5 м/с выше, чем в oбычных услoвиях.
Атмoсфернoе давление в разных тoчках местнoсти мoжет значительнo oтличаться oт давления на метеoстанции, в зависимoсти oт услoвий рельефа (при пoдъёме на 10 м давление пoнижается примернo на 1 мм рт.ст.).